Regional Weather Roundup
Issued by NWS

Home | Current Version | Previous Version | Graphics & Text | Print | Product List | Glossary On
Versions: 1 2 3 4 5 6 7 8 9 10 11 12 13 14 15 16 17 18 19 20 21 22 23 24 25 26 27 28 29 30 31 32 33 34 35 36 37 38 39 40 41 42 43 44 45 46 47 48 49 50
000
ASUS43 KLOT 010610
RWRIL

ILLINOIS REGIONAL WEATHER ROUNDUP
NATIONAL WEATHER SERVICE CHICAGO/ROMEOVILLE IL
100 AM CDT SAT NOV 01 2014

NOTE: "FAIR" INDICATES FEW OR NO CLOUDS BELOW 12,000 FEET WITH NO
SIGNIFICANT WEATHER AND/OR OBSTRUCTIONS TO VISIBILITY.

* THESE STATIONS ARE NOT UNDER NWS QUALITY CONTROL. THEY ALSO MAY NOT
  REPORT WEATHER SUCH AS PRECIPITATION OR FOG.

ILZ001-002-007-009-015-016-024-010700-
NORTHWEST ILLINOIS

CITY           SKY/WX    TMP DP  RH WIND       PRES   REMARKS
MOLINE         CLEAR     32  18  56 N8        30.44S WCI  25
6HR MIN TEMP:  32; 6HR MAX TEMP:  38;

STERLING*      CLEAR     28  10  47 MISG        N/A
SAVANNA*       CLEAR     29  18  63 N6        30.45S WCI  23
$$

ILZ003-004-008-010-011-017-018-010700-
NORTH CENTRAL ILLINOIS

CITY           SKY/WX    TMP DP  RH WIND       PRES   REMARKS
ROCKFORD       MOCLDY    34  17  50 N16G24    30.42F WCI  24
6HR MIN TEMP:  33; 6HR MAX TEMP:  38;

FREEPORT*      CLEAR     26  19  74 N7        30.44S WCI  18
ROCHELLE*      CLOUDY    32  19  59 N12       30.41R WCI  23
DE KALB*       CLOUDY    32  18  55 N16       30.38S WCI  21
PERU*          CLOUDY    32  20  61 N14       30.40S WCI  22
$$

ILZ005-006-012>014-019>023-010700-
NORTHEAST ILLINOIS

CITY           SKY/WX    TMP DP  RH WIND       PRES   REMARKS
CHICAGO-OHARE  CLOUDY    35  21  56 N17       30.34S WCI  25
6HR MIN TEMP:  34; 6HR MAX TEMP:  37; 6HR PCP:  0.01;

CHICAGO-MIDWAY FLURRIES  40  27  59 N16G26    30.32S
6HR MIN TEMP:  34; 6HR MAX TEMP:  40; 6HR PCP:  0.01;

AURORA         CLOUDY    36  19  50 N15G25    30.37R WCI  27
6HR MIN TEMP:  35; 6HR MAX TEMP:  37;

LANSING*       CLOUDY    39  25  58 N16G26    30.30S WCI  30
JOLIET*        CLOUDY    36  21  55 N14G20    30.35R WCI  27
WAUKEGAN       CLOUDY    34  21  59 NW12G22   30.35S WCI  25
6HR MIN TEMP:  34; 6HR MAX TEMP:  37; 6HR PCP:  0.02;

DUPAGE AIRPORT CLOUDY    35  20  54 N18       30.35S WCI  24
6HR MIN TEMP:  35; 6HR MAX TEMP:  37;

KANKAKEE*      CLOUDY    35  27  71 N16       30.31S WCI  26
WHEELING       CLOUDY    36  21  54 N14       30.37R WCI  27
6HR MIN TEMP:  35; 6HR MAX TEMP:  39; 6HR PCP:  0.01;

MORRIS*        CLOUDY    36  23  58 N9        30.35S WCI  29
ROMEOVILLE*    CLOUDY    36  21  54 N13G25    30.34S WCI  27
NORTHERLY ISL    N/A     40  29  65 N25         N/A
$$

LMZ740>746-010700-
SOUTHERN LAKE MICHIGAN

STATION/POSITION SKY/WX   TEMP    WIND        PRES    VSBY  WAVE
                          AIR SEA DIR/SP/G                  HT/PER
                          (F)     (DEG/KT/KT) (MB)    (MI)  (FT/S)
SOUTHERN BUOY              38 48   10/ 25/ 33 1027.0R        11/10
WAUKEGAN HARBOR            36     350/ 14/ 19   N/A
HARRISON CRIB              40      10/ 33/ 39   N/A
BURNHAM HARBOR             40     350/ 28/ 29   N/A
CALUMET HARBOR             40     350/ 21/ 27 1025.3S
MICHIGAN CITY              39     350/ 30/ 36   N/A
$$

ILZ025>027-034>036-040-047-049-050-058-095>099-010700-
WEST-CENTRAL ILLINOIS

CITY           SKY/WX    TMP DP  RH WIND       PRES   REMARKS
QUINCY         CLEAR     29  20  69 N8        30.43S WCI  21
GALESBURG*     CLEAR     24  19  83 NW5       30.43R WCI  18
MACOMB*        CLEAR     26  21  82 N7        30.45S WCI  18
JACKSONVILLE*  CLEAR     32  22  66 N7        30.41S WCI  26
PITTSFIELD*    CLEAR     32  23  70 NW6       30.44R WCI  26
$$

ILZ028>032-037-038-041>044-048-051>054-059>061-010700-
CENTRAL ILLINOIS

CITY           SKY/WX    TMP DP  RH WIND       PRES   REMARKS
PONTIAC        CLOUDY    37  22  56 N13G20    30.36S WCI  28
BLOOMINGTON    CLEAR     32  21  64 N17       30.34S WCI  21
DECATUR        CLEAR     32  22  66 N14       30.34S WCI  22
PEORIA         CLEAR     32  19  58 N9        30.40F WCI  24
6HR MIN TEMP:  32; 6HR MAX TEMP:  40;

LACON*         CLEAR     30  19  62 N8        30.40S WCI  23
LINCOLN*       CLEAR     33  22  63 N8        30.38S WCI  26
SPRINGFIELD    CLEAR     32  21  64 N10       30.38F WCI  24
6HR MIN TEMP:  32; 6HR MAX TEMP:  39;

TAYLORVILLE    CLEAR     32  23  69 N13       30.36S WCI  22
$$

ILZ033-039-045-046-055>057-062-063-010700-
EAST-CENTRAL ILLINOIS

CITY           SKY/WX    TMP DP  RH WIND       PRES   REMARKS
CHAMPAIGN      CLOUDY    34  22  61 N18G26    30.31R WCI  23
DANVILLE*      PTCLDY    33  29  87 NW16      30.24S WCI  22
RANTOUL*       CLOUDY    36  24  61 N14G20    30.30S WCI  27
MATTOON        CLOUDY    34  21  59 N21G29    30.29R WCI  22
PARIS*         CLOUDY    35  30  82 N7        30.28R WCI  29
$$

ILZ079-100>102-010700-
SOUTHWEST ILLINOIS

CITY           SKY/WX    TMP DP  RH WIND       PRES   REMARKS
ALTON          CLEAR     33  19  55 NW6       30.39R WCI  28
BELLEVILLE     CLEAR     33  23  65 NW6       30.37R WCI  28
CAHOKIA*       CLEAR     36  22  56 N13       30.39R WCI  27
SPARTA*        CLEAR     33  23  66 N7        30.36S WCI  27
$$

ILZ064>066-069>071-074>076-080>082-084>086-088>090-092>094-010700-
SOUTH-CENTRAL ILLINOIS

CITY           SKY/WX    TMP DP  RH WIND       PRES   REMARKS
CARBONDALE     CLEAR     35  21  56 N10       30.33S WCI  27
6HR MIN TEMP:  35; 6HR MAX TEMP:  42;

CAIRO*         CLEAR     39  24  55 N9        30.32R WCI  32
EFFINGHAM*     CLOUDY    36  19  51 N15G23    30.31S WCI  26
MARION         CLEAR     37  23  56 N8        30.32S WCI  31
MT. VERNON     PTCLDY    36  18  48 N6        30.32S WCI  31
CENTRALIA*     CLEAR     35  21  57 N16G23    30.33S WCI  25
SALEM*         CLEAR     36  24  61 N13G18    30.33S WCI  27
METROPOLIS*    CLEAR     37  24  60 N14       30.29S WCI  28
$$

ILZ067-068-072-073-078-083-087-091-010700-
SOUTHEAST ILLINOIS

CITY           SKY/WX    TMP DP  RH WIND       PRES   REMARKS
LAWRENCEVILLE  CLOUDY    38  29  70 N20G28    30.26R WCI  28
FLORA*         CLEAR     36  22  58 N18       30.30S WCI  25
FAIRFIELD*     CLOUDY    36  23  59 NW9       30.29R WCI  29
HARRISBURG*    CLEAR     36  22  57 N12G22    30.30S WCI  27
ROBINSON*      CLOUDY    39  31  73 N16       30.27R WCI  30
CARMI*         CLOUDY    38  26  62 NW18G24   30.27R WCI  28
$$

ABBREVIATIONS USED IN REMARKS
   TC - TEMPERATURE IN CELSIUS
  WCI - WIND CHILL INDEX
   HX - HEAT INDEX
  VSB - VISIBILITY
$$




USA.gov is the U.S. government's official web portal to all federal, state and local government web resources and services.